| time (UTC) | temp C | wind direction | speed KPH | gust KPH | rain 1hr cm | rain 24hr cm | rain mn cm | humidity % | barometer mb |
| 20260505124606 | 14 | 166 | 9.7 | 16.1 | 0.00 | 0.18 | 0.18 | 92 | 1008.7 |
| 20260505123112 | 14 | 142 | 6.4 | 12.9 | 0.00 | 0.18 | 0.18 | 93 | 1008.6 |
| 20260505121600 | 13 | 125 | 9.7 | 14.5 | 0.00 | 0.18 | 0.18 | 93 | 1008.5 |
| 20260505120059 | 13 | 151 | 6.4 | 11.3 | 0.00 | 0.18 | 0.18 | 94 | 1008.7 |
| 20260505114606 | 13 | 153 | 11.3 | 16.1 | 0.00 | 0.18 | 0.18 | 94 | 1009.0 |
| 20260505113101 | 13 | 171 | 6.4 | 12.9 | 0.00 | 0.18 | 0.18 | 94 | 1009.1 |
| 20260505111603 | 13 | 167 | 11.3 | 16.1 | 0.03 | 0.18 | 0.18 | 94 | 1009.0 |
| 20260505101606 | 13 | 297 | 9.7 | 22.5 | 0.15 | 0.15 | 0.15 | 91 | 1009.4 |
| 20260505100104 | 13 | 288 | 14.5 | 24.1 | 0.13 | 0.13 | 0.13 | 90 | 1009.3 |
| 20260505094607 | 14 | 283 | 16.1 | 33.8 | 0.10 | 0.10 | 0.10 | 87 | 1009.3 |
| 20260505093056 | 16 | 292 | 25.7 | 48.3 | 0.00 | 0.00 | 0.00 | 77 | 1009.2 |
| 20260505091558 | 18 | 289 | 12.9 | 24.1 | 0.00 | 0.00 | 0.00 | 63 | 1008.3 |
| 20260505090110 | 18 | 213 | 14.5 | 29.0 | 0.00 | 0.00 | 0.00 | 63 | 1007.4 |
| 20260505084559 | 18 | 241 | 16.1 | 32.2 | 0.00 | 0.00 | 0.00 | 63 | 1006.7 |
| 20260505083108 | 18 | 194 | 16.1 | 29.0 | 0.00 | 0.00 | 0.00 | 63 | 1006.6 |
| 20260505081602 | 18 | 226 | 14.5 | 27.4 | 0.00 | 0.00 | 0.00 | 63 | 1006.4 |
| 20260505080059 | 18 | 205 | 16.1 | 30.6 | 0.00 | 0.00 | 0.00 | 63 | 1006.2 |
| 20260505074557 | 18 | 213 | 17.7 | 32.2 | 0.00 | 0.00 | 0.00 | 62 | 1006.2 |
| 20260505073101 | 18 | 190 | 14.5 | 30.6 | 0.00 | 0.00 | 0.00 | 62 | 1006.3 |
| 20260505071559 | 18 | 211 | 16.1 | 33.8 | 0.00 | 0.00 | 0.00 | 62 | 1006.1 |
| 20260505070100 | 18 | 222 | 16.1 | 37.0 | 0.00 | 0.00 | 0.00 | 61 | 1006.1 |
| 20260505064558 | 18 | 211 | 19.3 | 33.8 | 0.00 | 0.00 | 0.00 | 61 | 1006.4 |
| 20260505063101 | 18 | 225 | 19.3 | 35.4 | 0.00 | 0.00 | 0.00 | 61 | 1006.5 |
| 20260505061603 | 18 | 198 | 22.5 | 40.2 | 0.00 | 0.00 | 0.00 | 61 | 1006.4 |
| 20260505054559 | 18 | 192 | 16.1 | 30.6 | 0.00 | 0.00 | 0.00 | 61 | 1006.1 |
| 20260505053058 | 18 | 204 | 17.7 | 33.8 | 0.00 | 0.00 | 0.00 | 60 | 1006.0 |
| 20260505051556 | 18 | 186 | 20.9 | 33.8 | 0.00 | 0.00 | 0.00 | 61 | 1005.9 |
| 20260505050128 | 18 | 197 | 20.9 | 37.0 | 0.00 | 0.00 | 0.00 | 61 | 1006.0 |
| 20260505041610 | 19 | 211 | 14.5 | 25.7 | 0.00 | 0.00 | 0.00 | 62 | 1006.5 |
| 20260505034557 | 20 | 200 | 19.3 | 33.8 | 0.00 | 0.00 | 0.00 | 59 | 1006.7 |
| 20260505033058 | 20 | 225 | 19.3 | 33.8 | 0.00 | 0.00 | 0.00 | 58 | 1006.7 |
| 20260505031559 | 20 | 214 | 19.3 | 32.2 | 0.00 | 0.00 | 0.00 | 58 | 1006.4 |
| 20260505030059 | 20 | 217 | 17.7 | 29.0 | 0.00 | 0.00 | 0.00 | 58 | 1006.2 |
| 20260505024557 | 20 | 207 | 17.7 | 32.2 | 0.00 | 0.00 | 0.00 | 58 | 1006.1 |
| 20260505023057 | 21 | 196 | 19.3 | 30.6 | 0.00 | 0.00 | 0.00 | 58 | 1005.9 |
| 20260505021601 | 21 | 183 | 16.1 | 24.1 | 0.00 | 0.00 | 0.00 | 57 | 1005.7 |
| 20260505020055 | 21 | 220 | 12.9 | 24.1 | 0.00 | 0.00 | 0.00 | 57 | 1005.4 |
| 20260505014611 | 21 | 206 | 16.1 | 30.6 | 0.00 | 0.00 | 0.00 | 57 | 1005.1 |
| 20260505013058 | 21 | 214 | 14.5 | 29.0 | 0.00 | 0.00 | 0.00 | 57 | 1004.9 |
| 20260505011604 | 21 | 215 | 16.1 | 27.4 | 0.00 | 0.00 | 0.00 | 56 | 1005.0 |
| 20260505010058 | 21 | 223 | 14.5 | 25.7 | 0.00 | 0.00 | 0.00 | 55 | 1005.0 |
| 20260505004557 | 22 | 212 | 16.1 | 24.1 | 0.00 | 0.00 | 0.00 | 54 | 1005.1 |
| 20260505003057 | 22 | 210 | 11.3 | 25.7 | 0.00 | 0.00 | 0.00 | 51 | 1005.0 |
| 20260505001623 | 23 | 209 | 17.7 | 32.2 | 0.00 | 0.00 | 0.00 | 50 | 1005.1 |
| 20260505000136 | 23 | 232 | 17.7 | 33.8 | 0.00 | 0.00 | 0.00 | 50 | 1005.3 |
| 20260504234612 | 23 | 250 | 22.5 | 38.6 | 0.00 | 0.00 | 0.00 | 50 | 1005.5 |
| 20260504233107 | 23 | 237 | 17.7 | 35.4 | 0.00 | 0.00 | 0.00 | 51 | 1005.6 |
| 20260504231601 | 23 | 217 | 16.1 | 49.9 | 0.00 | 0.00 | 0.00 | 51 | 1005.7 |
| 20260504230057 | 23 | 196 | 24.1 | 40.2 | 0.00 | 0.00 | 0.00 | 51 | 1005.9 |
| 20260504224611 | 23 | 232 | 19.3 | 38.6 | 0.00 | 0.00 | 0.00 | 51 | 1006.2 |
| 20260504223102 | 23 | 232 | 24.1 | 41.8 | 0.00 | 0.00 | 0.00 | 50 | 1006.2 |
| 20260504221604 | 23 | 202 | 19.3 | 38.6 | 0.00 | 0.00 | 0.00 | 49 | 1006.5 |
| 20260504214601 | 23 | 250 | 27.4 | 46.7 | 0.00 | 0.00 | 0.00 | 47 | 1006.6 |
| 20260504213126 | 23 | 248 | 30.6 | 48.3 | 0.00 | 0.00 | 0.00 | 48 | 1006.5 |
| 20260504211603 | 24 | 268 | 16.1 | 45.1 | 0.00 | 0.00 | 0.00 | 48 | 1006.6 |
| 20260504210058 | 25 | 257 | 14.5 | 33.8 | 0.00 | 0.00 | 0.00 | 49 | 1006.8 |
| 20260504204558 | 25 | 202 | 14.5 | 29.0 | 0.00 | 0.00 | 0.00 | 50 | 1006.8 |
| 20260504203117 | 25 | 186 | 14.5 | 29.0 | 0.00 | 0.00 | 0.00 | 50 | 1006.7 |
| 20260504201558 | 24 | 202 | 14.5 | 33.8 | 0.00 | 0.00 | 0.00 | 51 | 1006.8 |
| 20260504200055 | 24 | 244 | 12.9 | 27.4 | 0.00 | 0.00 | 0.00 | 55 | 1006.9 |
| 20260504194605 | 23 | 211 | 19.3 | 33.8 | 0.00 | 0.00 | 0.00 | 55 | 1007.4 |
| 20260504193110 | 23 | 208 | 17.7 | 33.8 | 0.00 | 0.00 | 0.00 | 54 | 1007.5 |
| 20260504191557 | 23 | 279 | 17.7 | 35.4 | 0.00 | 0.00 | 0.00 | 53 | 1007.8 |
| 20260504190115 | 23 | 214 | 11.3 | 29.0 | 0.00 | 0.00 | 0.00 | 55 | 1007.9 |
| 20260504184606 | 23 | 229 | 16.1 | 30.6 | 0.00 | 0.00 | 0.00 | 55 | 1007.9 |
| 20260504183058 | 22 | 184 | 14.5 | 35.4 | 0.00 | 0.00 | 0.00 | 57 | 1008.0 |
| 20260504181603 | 22 | 308 | 20.9 | 43.5 | 0.00 | 0.00 | 0.00 | 54 | 1007.9 |
| 20260504180059 | 22 | 172 | 12.9 | 35.4 | 0.00 | 0.00 | 0.00 | 58 | 1007.9 |
| 20260504174607 | 21 | 198 | 19.3 | 29.0 | 0.00 | 0.00 | 0.00 | 63 | 1008.0 |
| 20260504173100 | 20 | 188 | 12.9 | 24.1 | 0.00 | 0.00 | 0.00 | 64 | 1008.0 |
| 20260504171555 | 20 | 210 | 16.1 | 30.6 | 0.00 | 0.00 | 0.00 | 62 | 1008.2 |
| 20260504140110 | 15 | 238 | 9.7 | 25.7 | 0.00 | 0.00 | 0.00 | 74 | 1008.8 |